Theta_e
342 346 353 352 352 352 351 350 350 350 350 349 347 341 339 339 338 338 337 336 337 338 338 337 336 337 337 339 339 340 341 342 345 347 347 346 347 351 353 353 352 348 354
344 348 354 352 352 351 351 350 350 348 348 348 343 339 338 338 337 336 335 335 336 336 337 337 336 336 336 336 336 337 339 342 342 343 347 349 349 349 350 353 353 348 353
345 348 350 353 351 351 351 348 346 346 346 344 341 338 337 336 336 335 333 334 336 336 336 336 336 336 336 336 335 335 337 339 341 343 343 339 342 349 350 349 352 349 352
346 346 348 352 351 351 348 345 343 341 341 342 340 338 336 336 337 333 332 334 335 335 335 335 335 335 335 335 335 335 336 338 340 343 336 337 337 344 351 351 349 349 350
345 346 347 353 351 349 345 342 339 339 338 336 338 338 335 337 333 332 333 335 334 334 334 334 334 334 334 334 334 334 334 336 338 337 328 328 331 338 349 352 350 350 350
344 347 352 353 351 347 343 340 339 337 336 337 336 337 337 334 332 334 332 332 333 332 332 332 332 332 333 334 334 334 334 334 336 325 323 328 334 354 354 351 348 348 350
344 345 349 353 349 345 342 340 337 336 336 339 340 339 335 333 331 331 331 333 330 329 330 331 331 331 331 331 332 333 334 334 325 322 324 338 343 351 348 346 348 349 347
344 346 348 352 348 344 342 338 336 333 333 333 333 333 332 333 331 332 331 332 329 329 330 332 332 333 333 334 334 333 334 335 327 323 333 338 345 348 348 347 348 350 347
345 345 346 344 342 344 342 338 336 334 333 331 330 329 330 332 334 333 333 333 330 330 331 333 334 336 336 337 337 336 335 337 325 322 333 339 350 347 347 346 346 345 344
343 345 342 339 336 333 333 339 337 335 334 332 330 331 333 333 334 336 336 335 332 331 333 335 336 337 338 340 340 343 336 337 324 318 329 338 346 345 343 342 342 342 342
341 340 340 336 332 331 330 334 339 337 335 333 331 334 325 327 323 329 336 337 336 332 335 336 337 339 337 330 332 336 336 325 322 322 334 344 343 341 340 340 339 338 337
337 338 338 335 331 330 333 329 330 329 327 325 322 322 319 319 320 326 331 337 334 335 333 331 332 331 325 316 316 322 318 319 321 331 334 342 342 339 339 337 335 335 333
326 337 337 334 332 329 329 327 327 326 325 323 322 320 320 319 319 319 316 317 317 323 316 318 318 316 314 315 316 314 316 320 326 331 337 342 341 337 335 335 334 333 332
315 326 328 335 331 328 327 327 328 325 325 326 320 319 320 318 319 320 316 315 314 315 316 314 315 315 315 317 315 314 315 317 324 326 331 340 341 336 335 333 332 331 330
314 321 325 328 328 328 326 326 324 323 325 322 320 320 320 318 318 320 319 317 315 316 317 314 314 315 315 315 316 314 315 316 320 325 324 337 338 337 334 333 332 330 330
318 323 327 329 326 327 325 324 323 320 323 322 321 321 323 319 318 319 319 316 316 317 316 315 314 315 315 314 313 316 317 317 319 324 325 330 339 337 335 333 333 331 330
320 324 325 326 325 323 323 323 323 321 325 321 320 322 322 320 318 320 318 315 316 318 315 315 315 316 316 317 312 314 316 319 324 326 326 327 331 338 336 334 333 332 332
320 322 323 329 325 325 322 322 322 322 320 322 322 322 323 321 320 319 318 316 317 316 314 314 314 315 315 314 310 313 314 315 316 319 325 326 327 328 333 337 335 335 333
321 322 322 324 323 323 323 322 322 320 318 319 322 324 322 323 323 317 320 319 318 316 315 315 314 314 313 314 313 314 313 314 314 319 317 318 321 325 323 332 337 336 335
321 322 321 321 323 324 323 321 322 320 319 320 321 322 323 322 323 318 320 321 318 316 315 314 312 313 313 313 316 314 311 312 314 313 314 316 315 315 315 317 318 325 333
322 321 322 321 322 324 320 318 317 318 318 319 322 324 323 322 323 318 319 318 316 317 316 315 313 312 311 313 311 312 310 313 313 314 315 315 315 315 315 316 318 315 316
321 322 322 323 324 323 320 319 322 319 320 322 322 323 322 323 322 321 319 318 316 316 316 315 313 311 310 313 310 306 304 307 311 313 313 315 314 314 316 316 314 315 316
322 322 322 323 323 323 321 322 320 319 320 319 320 321 322 324 323 322 320 320 315 316 314 315 313 312 310 312 312 310 308 303 305 310 312 312 313 312 315 316 318 318 318
325 327 325 323 324 323 322 321 318 319 316 320 320 323 323 325 324 322 320 319 316 315 314 315 318 314 312 311 313 315 313 311 307 306 310 312 313 315 315 315 315 317 318
328 328 327 324 323 324 324 325 324 318 321 322 321 320 319 320 321 323 321 320 318 316 316 318 317 315 314 313 312 312 311 312 311 310 311 308 313 314 314 314 315 315 317
329 328 328 326 325 326 324 326 326 322 321 321 319 318 320 319 321 322 321 318 318 317 318 318 318 317 317 315 315 314 313 312 310 311 310 309 309 312 313 314 314 315 315
Wind_Speed
6 8 15 16 15 13 10 8 8 7 6 7 9 9 9 9 9 9 9 9 9 9 8 9 8 9 8 7 7 6 4 4 2 2 3 3 3 5 10 11 12 9 11
13 9 15 14 15 14 11 9 9 9 8 8 9 8 8 8 8 9 9 9 7 9 9 8 8 7 8 8 7 7 7 7 6 5 5 6 7 8 8 9 11 9 3
13 10 11 15 14 12 13 11 10 9 10 9 8 7 7 6 6 7 7 7 8 8 8 8 7 8 8 7 7 7 8 8 8 8 7 4 5 11 11 10 8 5 5
13 7 9 16 15 13 13 12 10 8 7 6 6 6 5 4 4 4 5 5 6 7 8 7 7 8 8 8 8 8 8 9 9 9 4 4 6 11 12 11 10 8 6
11 9 10 17 15 14 13 11 9 7 6 4 5 5 3 4 5 4 5 6 6 6 6 7 7 7 8 9 9 9 9 9 9 9 6 6 5 12 15 12 11 11 10
10 9 13 16 15 15 12 10 9 7 6 4 7 5 3 4 4 5 3 4 6 7 8 7 6 6 7 9 10 10 10 10 10 7 7 9 6 5 15 12 10 9 8
9 7 10 16 15 14 13 11 9 8 7 7 6 5 4 3 2 1 2 4 6 6 6 8 9 9 9 9 9 9 9 9 5 7 7 2 6 9 8 6 8 7 8
13 8 10 16 16 15 13 11 9 8 8 6 5 4 3 3 2 3 3 3 5 6 8 9 10 10 11 10 10 9 8 8 5 6 5 2 6 8 8 6 4 5 3
10 10 9 9 12 15 13 12 11 11 9 8 6 5 5 6 6 6 5 6 5 6 9 10 11 13 14 15 15 11 8 8 3 3 2 2 11 8 8 8 7 5 2
10 10 8 6 6 6 7 12 11 11 10 8 5 5 6 9 8 8 8 8 5 7 10 12 13 14 13 12 13 13 5 7 4 3 4 3 11 11 11 10 8 7 6
7 6 6 6 6 6 5 6 9 9 7 5 2 5 6 1 3 8 8 11 9 6 9 13 10 8 8 13 13 15 12 3 2 2 2 10 10 9 9 9 8 7 6
9 8 9 7 7 6 6 4 5 3 2 2 2 5 3 4 1 2 4 8 4 7 8 8 7 9 9 5 4 8 3 4 2 4 3 11 10 9 9 9 8 7 5
11 8 10 9 8 8 5 4 2 2 2 2 4 4 5 3 4 4 3 3 3 4 4 5 5 4 7 5 5 3 5 5 3 3 5 9 8 8 8 8 7 5 4
9 10 10 10 9 6 4 4 5 4 3 2 2 4 4 2 4 5 3 2 2 4 5 5 3 5 7 7 5 5 4 3 2 1 4 9 7 7 7 6 5 4 2
8 10 9 8 8 6 6 4 3 4 4 4 3 3 4 2 3 3 2 2 3 3 4 4 4 5 5 6 6 5 3 4 3 2 2 8 6 6 6 6 5 4 4
9 10 10 10 8 8 6 6 5 5 6 4 4 4 4 3 3 3 2 3 4 3 2 2 3 4 4 4 5 6 5 3 3 6 4 3 8 7 8 7 7 6 6
10 11 10 9 8 8 7 5 4 5 5 4 4 5 4 3 4 3 3 1 3 2 3 4 5 5 5 5 5 4 4 5 4 4 4 3 3 8 9 7 9 8 8
12 11 8 8 8 7 7 4 4 5 4 4 4 3 5 4 3 2 3 2 2 2 1 3 3 4 4 4 4 5 3 4 2 4 2 2 4 3 7 12 13 12 12
12 12 8 8 8 7 5 5 4 3 2 4 3 4 5 5 4 3 3 1 2 2 3 3 2 2 3 5 5 4 4 2 2 2 3 2 4 5 4 10 15 14 15
7 8 8 6 7 6 4 3 2 1 3 3 1 4 5 4 5 3 3 3 3 1 2 3 3 2 1 3 3 4 3 3 2 2 3 3 3 5 4 5 5 6 13
7 8 8 8 5 4 2 3 2 2 2 2 3 4 6 5 6 3 3 3 3 4 2 1 2 4 3 5 4 6 4 4 2 4 3 4 5 5 6 5 4 4 5
7 7 7 6 6 3 1 2 3 2 3 3 2 5 6 6 6 4 5 4 3 2 2 2 1 2 1 4 2 1 5 6 4 4 3 4 4 4 5 6 5 6 5
7 7 8 7 5 4 4 0 2 1 1 1 1 2 4 6 4 4 5 4 4 3 2 1 2 2 1 2 2 3 2 2 4 3 4 3 5 3 5 5 6 6 6
6 6 7 6 5 4 5 2 3 2 1 3 2 3 4 5 5 5 5 5 4 3 3 3 3 2 3 3 3 2 2 4 2 6 3 4 4 6 7 6 6 6 6
10 8 7 7 6 5 6 5 3 3 3 2 2 1 2 4 5 5 4 5 4 4 3 3 3 4 2 2 4 2 2 3 4 4 7 5 4 5 5 5 5 5 6
9 8 7 8 7 7 7 7 6 5 4 3 3 3 2 2 3 5 4 5 5 5 5 5 4 5 5 4 3 4 4 3 3 3 4 4 5 5 3 5 5 5 5
Wind_Direction
192 186 151 140 130 125 117 107 96 85 76 89 99 89 78 69 59 50 45 41 40 39 41 43 37 28 21 26 22 12 5 345 320 289 278 274 252 210 202 195 192 196 206
159 167 155 142 131 128 117 104 91 81 75 95 97 92 84 71 59 46 37 35 34 37 34 32 28 27 19 11 4 360 350 342 326 307 286 273 257 232 227 216 218 219 242
153 156 153 140 128 124 116 107 100 95 95 106 108 102 90 75 59 47 39 30 32 21 26 13 15 4 358 2 359 351 345 338 331 318 291 264 253 259 233 214 212 191 179
146 150 153 139 133 127 117 108 101 93 95 108 119 108 91 67 40 48 42 37 27 12 4 356 356 353 347 342 343 346 342 338 335 327 328 278 267 263 236 207 199 187 188
149 160 159 141 137 130 121 114 103 98 95 115 130 117 87 44 33 40 39 27 8 1 2 354 349 343 339 335 336 339 338 335 326 329 299 269 248 256 236 188 187 185 186
157 157 149 139 139 133 126 120 115 107 109 99 142 130 98 67 52 60 32 7 353 348 344 347 345 336 330 327 324 330 342 330 324 313 298 270 225 164 158 175 195 190 185
151 150 141 146 147 141 135 130 125 121 121 112 113 125 117 106 71 101 325 350 347 347 333 339 335 330 327 323 321 328 335 329 332 317 312 44 131 117 132 174 198 189 204
148 145 153 155 155 149 143 140 138 144 139 134 144 155 161 168 212 238 277 307 335 335 331 334 336 334 333 331 327 328 334 324 339 317 338 106 141 132 127 124 122 147 195
144 147 155 158 164 157 151 154 155 160 155 155 172 196 207 216 230 228 243 268 302 317 318 323 329 329 330 330 324 325 326 323 359 304 292 118 122 125 121 118 106 92 104
149 158 158 161 152 156 168 167 174 173 163 163 181 219 240 235 235 248 249 260 287 299 311 319 327 326 324 346 351 347 322 325 318 308 197 144 128 131 130 121 112 106 100
157 156 155 164 157 172 177 186 189 187 174 185 203 19 18 271 248 264 247 248 270 285 306 327 322 325 349 346 353 0 38 266 251 195 114 144 133 134 135 129 119 102 85
167 171 171 172 173 180 179 190 191 229 189 228 121 64 36 51 319 40 223 249 307 328 330 2 358 354 2 335 337 4 20 350 47 119 149 147 150 151 143 125 109 93 77
175 173 181 177 185 184 190 177 198 203 204 218 90 81 69 41 20 48 31 41 29 6 5 2 347 358 342 336 335 8 41 30 110 134 167 164 163 155 134 127 119 116 114
160 179 179 180 181 183 171 175 187 186 174 206 107 88 80 47 35 35 24 31 30 24 5 2 1 348 353 356 317 316 60 78 140 141 188 176 174 151 143 143 137 135 117
154 159 157 151 156 165 168 167 161 172 166 162 153 119 112 73 73 54 42 343 24 21 16 357 18 7 1 347 356 342 333 100 187 184 202 182 179 167 182 172 170 187 227
157 157 149 149 150 147 145 156 162 138 161 157 146 173 138 126 97 74 95 345 40 12 35 348 22 13 352 340 349 358 326 321 210 176 192 195 191 197 207 201 213 223 253
168 153 154 145 147 135 139 140 135 149 152 163 170 181 171 180 111 123 143 346 45 58 36 2 5 14 359 347 350 335 343 334 94 162 191 186 214 217 222 228 245 242 252
154 155 158 146 145 143 125 124 132 124 149 171 186 182 207 205 145 133 155 6 64 69 10 26 18 357 352 350 328 344 21 348 87 150 148 211 216 234 240 233 242 251 256
158 150 143 138 141 131 116 107 113 139 195 189 174 210 199 200 177 128 138 88 66 57 16 354 3 35 346 344 323 333 333 313 297 79 117 187 229 238 240 242 245 248 257
136 143 136 128 123 114 100 90 63 4 283 277 188 221 207 177 175 132 104 103 95 69 17 358 11 332 315 326 310 309 320 308 65 354 314 289 256 248 246 248 260 262 267
138 131 128 121 127 121 108 120 62 255 282 276 244 214 217 178 167 171 116 131 121 97 190 9 334 350 344 345 8 348 358 35 112 22 334 313 292 302 292 271 252 243 268
104 99 106 119 143 164 162 170 169 183 229 225 255 183 197 178 178 174 154 186 139 153 24 46 30 349 325 18 47 80 4 336 332 328 319 325 313 310 305 293 272 264 259
99 124 142 157 156 186 171 315 354 339 319 336 269 159 206 202 184 165 189 184 194 145 127 169 165 86 347 318 115 135 0 273 321 311 302 282 316 303 289 285 280 276 268
129 148 153 154 174 211 187 172 195 191 217 242 220 207 193 222 206 197 186 182 200 162 195 212 189 188 155 276 349 196 200 183 256 317 306 297 308 309 299 303 303 293 285
153 170 161 169 193 213 199 198 181 199 225 233 133 151 269 265 230 215 195 178 186 207 220 218 240 233 206 198 193 263 263 217 221 222 292 309 309 280 278 279 291 290 296
164 161 168 178 200 211 202 211 202 207 189 163 187 215 232 268 226 227 198 192 197 215 227 227 234 235 236 225 227 227 219 229 249 246 268 289 272 285 277 293 293 300 298